This is the latest recevied weather packets stored in our database for station/object 7L2IWN-13. If no packets are shown the sender has not sent any weather packets the latest 10 day(s).
| Time | Temp. | Humidity | Pressure | Rain* | Wind** | Luminosity | Snow |
|---|---|---|---|---|---|---|---|
| 1777743262 | 11.11° C | 92% | 1011.3 hPa | 0 mm | - | - | - |
| 1777742542 | 11.11° C | 90% | 1011.7 hPa | 0 mm | - | - | - |
| 1777741821 | 11.11° C | 90% | 1011.5 hPa | 0 mm | - | - | - |
| 1777741100 | 11.11° C | 89% | 1011.8 hPa | 0 mm | - | - | - |
| 1777740382 | 11.11° C | 90% | 1011.8 hPa | 0 mm | - | - | - |
| 1777739662 | 11.11° C | 89% | 1011.7 hPa | 0 mm | - | - | - |
| 1777738221 | 10.56° C | 88% | 1011.6 hPa | 0 mm | - | - | - |
| 1777737501 | 10.56° C | 90% | 1011.5 hPa | 0 mm | - | - | - |
| 1777736780 | 10.56° C | 89% | 1011.6 hPa | 0 mm | - | - | - |
| 1777736061 | 11.11° C | 89% | 1012.1 hPa | 0 mm | - | - | - |
| 1777735342 | 11.11° C | 88% | 1012 hPa | 0 mm | - | - | - |
| 1777734621 | 11.11° C | 87% | 1011.9 hPa | 0 mm | - | - | - |
| 1777733901 | 11.67° C | 86% | 1011.9 hPa | 0 mm | - | - | - |
| 1777733181 | 11.67° C | 86% | 1011.8 hPa | 0 mm | - | - | - |
| 1777732461 | 11.67° C | 84% | 1011.9 hPa | 0 mm | - | - | - |
| 1777731741 | 11.67° C | 85% | 1012 hPa | 0 mm | - | - | - |
| 1777731020 | 12.22° C | 84% | 1011.9 hPa | 0 mm | - | - | - |
| 1777730302 | 12.22° C | 84% | 1011.8 hPa | 0 mm | - | - | - |
| 1777729581 | 12.22° C | 83% | 1011.5 hPa | 0 mm | - | - | - |
| 1777728861 | 12.78° C | 81% | 1011.7 hPa | 0 mm | - | - | - |
| 1777728141 | 13.33° C | 80% | 1011.7 hPa | 0 mm | - | - | - |
| 1777727420 | 12.78° C | 81% | 1011.5 hPa | 0 mm | - | - | - |
| 1777726702 | 13.33° C | 79% | 1011.6 hPa | 0 mm | - | - | - |
| 1777725982 | 13.89° C | 78% | 1011.5 hPa | 0 mm | - | - | - |
| 1777725261 | 13.89° C | 76% | 1011.1 hPa | 0 mm | - | - | - |
* Rain latest hour (hover to see other rain measurements)
** Current wind speed in m/s (hover to see current wind gust speed)